{"data":{"norad_id":28521,"intl_designator":"2005-002A","name":"COSMOS 2414","alt_names":[],"object_type":"PAYLOAD","status":"ACTIVE","operator":null,"country":"CIS","launch_date":"2005-01-20","launch_site_code":"PLMSC","launch_vehicle":null,"mission":null,"orbit_class":"UNKNOWN","rcs_meters":1.8312,"size_class":null,"mass_kg":null,"dimensions":null,"purposes":["nav"],"wikipedia_slug":null,"has_3d_model":false,"image_url":null,"decayed_at":null,"tle_current":{"epoch":"2026-05-25T04:18:15.637824Z","epoch_age_seconds":49825,"freshness":"FRESH","line1":"1 28521U 05002A   26145.17934766  .00000064  00000+0  40566-4 0  9990","line2":"2 28521  82.9508  61.0487 0041069  36.6171 323.7787 13.87924099 80627","mean_motion":13.87924099,"eccentricity":0.0041069,"inclination_deg":82.9508,"raan_deg":61.0487,"arg_perigee_deg":36.6171,"mean_anomaly_deg":323.7787,"bstar":4.0566e-5,"rev_number":8062,"period_min":103.75207124349,"perigee_km":905.87669443274,"apogee_km":965.95285289125,"semimajor_km":7314.051773662,"source":"CELESTRAK","updated_at":"2026-05-25T13:38:24.477083Z"}}}